User: anonymous   Login
Location: Pian di Sc�
(43.6333°N, 11.5500°E)
Time: 07:27:12
(UTC+00:00)
Language:

Cosmos 2180 Rocket - Orbit

View from above orbital plane
View from above orbital plane
View from above satellite
View from above satellite

Ground track
Ground track

The orbit data is extracted from the following two-line orbital elements,

1 21876U 92008B   20295.26837216 +.00000097 +00000-0 +84262-4 0  9998
2 21876 082.9228 288.9003 0033802 220.8606 149.9016 13.75664294439178
Epoch (UTC): 21 October 2020 06:26:27
Eccentricity: 0.0033802
inclination: 82.9228°
perigee height: 954 km
apogee height: 1004 km
right ascension of ascending node: 288.9003°
argument of perigee: 220.8606°
revolutions per day: 13.75664294
mean anomaly at epoch: 149.9016°
orbit number at epoch: 43917

The dashed part of the orbit path shows where the satellite is in the earth's shadow,  

DLR